Location: Baller�as
(41.9020°N, 0.1554°W)
Time: 11:58:43
(UTC+00:00)

Cosmos 1190 Rocket - Pass Details

Date: 10 August 2020
Orbit: 756 x 780 km, 74.1° (Epoch: 21 September)

Event Time Altitude Azimuth Distance (km) Brightness Sun altitude
Rises 20:40:42 0° 203° (SSW) 3,225 7.1 -15.9°
Reaches altitude 10° 20:43:04 10° 205° (SSW) 2,306 6.3 -16.2°
Maximum altitude 20:48:18 74° 291° (WNW) 809 4.2 -17.0°
Drops below altitude 10° 20:53:37 10° 16° (NNE) 2,336 6.8 -17.7°
Sets 20:56:01 0° 19° (NNE) 3,270 7.6 -18.1°
